ワイズ-ギャラッド彗星

C/2010 FB87 ( WISE-Garradd )

English version
Home page
Updated on March 24, 2012

---------------------------------------------------------------------

・ プロフィール

発見日 2010年3月28日、4月21日
発見光度 17.8等
発見者 Wide Field Infrared Survey Explorer (NASA), G. J. Garradd (Siding Spring Survey)

・ 写真集

・ 軌道要素

Epoch 2010 Nov. 20.0 TT = JDT 2455520.5
T 2010 Nov. 7.38567 TT                                  MPC
q   2.8427125            (2000.0)            P               Q
z  +0.0032980      Peri.  265.02216     -0.30182790     -0.02451427
 +/-0.0000007      Node    89.89871     +0.29855030     +0.94695757
e   0.9906248      Incl.  107.62688     -0.90541020     +0.32042223
From 549 observations 2010 Mar. 28-2012 Mar. 13, mean residual 0".5.

・ 星図

・ 光度変化

        m1 = 6.7 + 5 logΔ + 12.0 log r(t - 240)

---------------------------------------------------------------------

軌道要素はM.P.E.C. 2012-F11に掲載されたものです。
星図はステラナビゲータ Ver.8 (アストロアーツ) で作成したものです。
光度グラフはComet for Windowsで作成したものです。

---------------------------------------------------------------------

Copyright(C) Seiichi Yoshida (comet@aerith.net). All rights reserved.